Time,TemperatureF,DewpointF,PressureIn,WindDirection,WindDirectionDegrees,WindSpeedMPH,WindSpeedGustMPH,Humidity,HourlyPrecipIn,Conditions,Clouds,dailyrainin,SoftwareType,DateUTC
2013-02-18 00:04:00,13.7,1.0,29.88,NNE,28,4.0,-999.0,56,-99.99,,,0.00,weatherlink.com 1.10,2013-02-18 05:04:00,
2013-02-18 00:19:00,13.6,1.0,29.89,West,278,8.0,-999.0,57,-99.99,,,0.00,weatherlink.com 1.10,2013-02-18 05:19:00,
2013-02-18 00:35:00,13.6,1.0,29.90,NNW,344,1.0,-999.0,57,-99.99,,,0.00,weatherlink.com 1.10,2013-02-18 05:35:00,
2013-02-18 00:49:00,13.4,1.0,29.91,NNW,342,10.0,-999.0,57,-99.99,,,0.00,weatherlink.com 1.10,2013-02-18 05:49:00,
2013-02-18 01:04:00,13.2,1.0,29.91,NE,34,6.0,-999.0,58,-99.99,,,0.00,weatherlink.com 1.10,2013-02-18 06:04:00,
2013-02-18 01:20:00,13.2,1.0,29.92,NNW,332,8.0,-999.0,58,-99.99,,,0.00,weatherlink.com 1.10,2013-02-18 06:20:00,
2013-02-18 01:34:00,13.2,1.0,29.93,NNW,343,4.0,-999.0,59,-99.99,,,0.00,weatherlink.com 1.10,2013-02-18 06:34:00,
2013-02-18 01:49:00,13.0,1.0,29.93,North,354,7.0,-999.0,59,-99.99,,,0.00,weatherlink.com 1.10,2013-02-18 06:49:00,
2013-02-18 02:04:00,12.9,1.0,29.94,NW,309,9.0,-999.0,60,-99.99,,,0.00,weatherlink.com 1.10,2013-02-18 07:04:00,
2013-02-18 02:19:00,12.8,1.0,29.94,North,354,0.0,-999.0,60,-99.99,,,0.00,weatherlink.com 1.10,2013-02-18 07:19:00,
2013-02-18 02:34:00,12.7,1.0,29.95,NW,308,7.0,-999.0,60,-99.99,,,0.00,weatherlink.com 1.10,2013-02-18 07:34:00,
2013-02-18 02:49:00,12.6,1.0,29.95,NW,313,0.0,-999.0,61,-99.99,,,0.00,weatherlink.com 1.10,2013-02-18 07:49:00,
2013-02-18 03:05:00,12.5,1.0,29.95,NNW,343,9.0,-999.0,61,-99.99,,,0.00,weatherlink.com 1.10,2013-02-18 08:05:00,
2013-02-18 03:19:00,12.5,1.0,29.95,NW,323,5.0,-999.0,61,-99.99,,,0.00,weatherlink.com 1.10,2013-02-18 08:19:00,
2013-02-18 03:34:00,12.5,1.0,29.96,NNW,332,5.0,-999.0,60,-99.99,,,0.00,weatherlink.com 1.10,2013-02-18 08:34:00,
2013-02-18 03:49:00,12.4,1.0,29.96,NNW,339,0.0,-999.0,60,-99.99,,,0.00,weatherlink.com 1.10,2013-02-18 08:49:00,
2013-02-18 04:05:00,12.3,1.0,29.97,NW,324,5.0,-999.0,60,-99.99,,,0.00,weatherlink.com 1.10,2013-02-18 09:05:00,
2013-02-18 04:19:00,12.3,1.0,29.98,NW,309,0.0,-999.0,60,-99.99,,,0.00,weatherlink.com 1.10,2013-02-18 09:19:00,
2013-02-18 04:34:00,12.2,1.0,30.00,WNW,301,0.0,-999.0,60,-99.99,,,0.00,weatherlink.com 1.10,2013-02-18 09:34:00,
2013-02-18 04:49:00,12.5,0.0,30.01,NNW,337,1.0,-999.0,58,-99.99,,,0.00,weatherlink.com 1.10,2013-02-18 09:49:00,
2013-02-18 05:04:00,12.6,0.0,30.02,NW,317,9.0,-999.0,58,-99.99,,,0.00,weatherlink.com 1.10,2013-02-18 10:04:00,
2013-02-18 05:20:00,12.5,0.0,30.02,NNW,345,4.0,-999.0,58,-99.99,,,0.00,weatherlink.com 1.10,2013-02-18 10:20:00,
2013-02-18 05:34:00,12.4,0.0,30.03,NW,317,14.0,-999.0,58,-99.99,,,0.00,weatherlink.com 1.10,2013-02-18 10:34:00,
2013-02-18 05:49:00,12.2,0.0,30.04,WNW,303,2.0,-999.0,59,-99.99,,,0.00,weatherlink.com 1.10,2013-02-18 10:49:00,
2013-02-18 06:04:00,12.3,0.0,30.04,North,354,4.0,-999.0,58,-99.99,,,0.00,weatherlink.com 1.10,2013-02-18 11:04:00,
2013-02-18 06:20:00,12.3,0.0,30.05,NNE,14,4.0,-999.0,58,-99.99,,,0.00,weatherlink.com 1.10,2013-02-18 11:20:00,
2013-02-18 06:34:00,12.4,0.0,30.07,North,4,10.0,-999.0,58,-99.99,,,0.00,weatherlink.com 1.10,2013-02-18 11:34:00,
2013-02-18 06:49:00,12.1,1.0,30.08,NNW,328,13.0,-999.0,60,-99.99,,,0.00,weatherlink.com 1.10,2013-02-18 11:49:00,
2013-02-18 07:04:00,12.1,1.0,30.09,NW,310,2.0,-999.0,60,-99.99,,,0.00,weatherlink.com 1.10,2013-02-18 12:04:00,
2013-02-18 07:20:00,11.9,0.0,30.11,NE,44,2.0,-999.0,60,-99.99,,,0.00,weatherlink.com 1.10,2013-02-18 12:20:00,
2013-02-18 07:34:00,12.3,1.0,30.11,North,11,4.0,-999.0,60,-99.99,,,0.00,weatherlink.com 1.10,2013-02-18 12:34:00,
2013-02-18 07:49:00,13.1,1.0,30.12,NNE,22,15.0,-999.0,58,-99.99,,,0.00,weatherlink.com 1.10,2013-02-18 12:49:00,
2013-02-18 08:05:00,13.6,1.0,30.13,NNW,330,9.0,-999.0,57,-99.99,,,0.00,weatherlink.com 1.10,2013-02-18 13:05:00,
2013-02-18 08:19:00,14.5,1.0,30.14,North,354,8.0,-999.0,55,-99.99,,,0.00,weatherlink.com 1.10,2013-02-18 13:19:00,
2013-02-18 08:35:00,14.7,1.0,30.16,NE,45,12.0,-999.0,55,-99.99,,,0.00,weatherlink.com 1.10,2013-02-18 13:35:00,
2013-02-18 08:49:00,15.2,1.0,30.16,NNE,21,16.0,-999.0,54,-99.99,,,0.00,weatherlink.com 1.10,2013-02-18 13:49:00,
2013-02-18 09:04:00,15.3,1.0,30.16,NNE,23,10.0,-999.0,53,-99.99,,,0.00,weatherlink.com 1.10,2013-02-18 14:04:00,
2013-02-18 09:20:00,15.8,1.0,30.15,NE,41,7.0,-999.0,52,-99.99,,,0.00,weatherlink.com 1.10,2013-02-18 14:20:00,
2013-02-18 09:34:00,16.7,1.0,30.15,NW,306,9.0,-999.0,50,-99.99,,,0.00,weatherlink.com 1.10,2013-02-18 14:34:00,
2013-02-18 09:50:00,17.5,1.0,30.15,NE,37,12.0,-999.0,48,-99.99,,,0.00,weatherlink.com 1.10,2013-02-18 14:50:00,
2013-02-18 10:05:00,18.8,1.0,30.16,NNW,343,7.0,-999.0,46,-99.99,,,0.00,weatherlink.com 1.10,2013-02-18 15:05:00,
2013-02-18 10:20:00,19.9,1.0,30.18,NW,307,7.0,-999.0,44,-99.99,,,0.00,weatherlink.com 1.10,2013-02-18 15:20:00,
2013-02-18 10:35:00,21.1,1.0,30.18,NNW,343,2.0,-999.0,42,-99.99,,,0.00,weatherlink.com 1.10,2013-02-18 15:35:00,
2013-02-18 10:50:00,22.4,2.0,30.18,NNW,328,4.0,-999.0,41,-99.99,,,0.00,weatherlink.com 1.10,2013-02-18 15:50:00,
2013-02-18 11:05:00,23.7,3.0,30.18,NW,308,1.0,-999.0,40,-99.99,,,0.00,weatherlink.com 1.10,2013-02-18 16:05:00,
2013-02-18 11:20:00,23.9,3.0,30.18,NW,305,4.0,-999.0,40,-99.99,,,0.00,weatherlink.com 1.10,2013-02-18 16:20:00,
2013-02-18 11:35:00,23.9,2.0,30.18,NNE,12,2.0,-999.0,38,-99.99,,,0.00,weatherlink.com 1.10,2013-02-18 16:35:00,
2013-02-18 11:50:00,25.1,3.0,30.18,North,349,12.0,-999.0,39,-99.99,,,0.00,weatherlink.com 1.10,2013-02-18 16:50:00,
2013-02-18 12:05:00,26.1,4.0,30.18,NNE,17,8.0,-999.0,38,-99.99,,,0.00,weatherlink.com 1.10,2013-02-18 17:05:00,
2013-02-18 12:20:00,26.1,3.0,30.17,NW,306,2.0,-999.0,37,-99.99,,,0.00,weatherlink.com 1.10,2013-02-18 17:20:00,
2013-02-18 12:50:00,27.8,4.0,30.16,NNW,340,15.0,-999.0,36,-99.99,,,0.00,weatherlink.com 1.10,2013-02-18 17:50:00,
2013-02-18 13:05:00,28.3,4.0,30.16,WNW,297,10.0,-999.0,35,-99.99,,,0.00,weatherlink.com 1.10,2013-02-18 18:05:00,
2013-02-18 13:20:00,28.9,4.0,30.16,NW,322,5.0,-999.0,35,-99.99,,,0.00,weatherlink.com 1.10,2013-02-18 18:20:00,
2013-02-18 13:35:00,29.9,5.0,30.16,NW,306,11.0,-999.0,34,-99.99,,,0.00,weatherlink.com 1.10,2013-02-18 18:35:00,
2013-02-18 14:05:00,29.9,5.0,30.15,West,280,9.0,-999.0,34,-99.99,,,0.00,weatherlink.com 1.10,2013-02-18 19:05:00,
2013-02-18 14:20:00,31.1,6.0,30.15,NW,320,9.0,-999.0,34,-99.99,,,0.00,weatherlink.com 1.10,2013-02-18 19:20:00,
2013-02-18 14:35:00,31.6,5.0,30.15,West,263,0.0,-999.0,32,-99.99,,,0.00,weatherlink.com 1.10,2013-02-18 19:35:00,
2013-02-18 14:50:00,31.7,5.0,30.15,NW,322,1.0,-999.0,32,-99.99,,,0.00,weatherlink.com 1.10,2013-02-18 19:50:00,
2013-02-18 15:05:00,31.6,5.0,30.15,North,10,2.0,-999.0,33,-99.99,,,0.00,weatherlink.com 1.10,2013-02-18 20:05:00,
2013-02-18 15:20:00,31.3,4.0,30.15,SW,229,5.0,-999.0,31,-99.99,,,0.00,weatherlink.com 1.10,2013-02-18 20:20:00,
2013-02-18 15:35:00,31.0,4.0,30.15,WNW,294,11.0,-999.0,32,-99.99,,,0.00,weatherlink.com 1.10,2013-02-18 20:35:00,
2013-02-18 15:50:00,30.9,3.0,30.16,West,281,4.0,-999.0,31,-99.99,,,0.00,weatherlink.com 1.10,2013-02-18 20:50:00,
2013-02-18 16:05:00,31.0,5.0,30.16,NW,304,7.0,-999.0,33,-99.99,,,0.00,weatherlink.com 1.10,2013-02-18 21:05:00,
2013-02-18 16:20:00,31.0,4.0,30.16,NNW,345,7.0,-999.0,32,-99.99,,,0.00,weatherlink.com 1.10,2013-02-18 21:20:00,
2013-02-18 16:35:00,30.7,5.0,30.16,NNW,329,0.0,-999.0,33,-99.99,,,0.00,weatherlink.com 1.10,2013-02-18 21:35:00,
2013-02-18 16:50:00,30.5,4.0,30.16,NW,321,15.0,-999.0,33,-99.99,,,0.00,weatherlink.com 1.10,2013-02-18 21:50:00,
2013-02-18 17:05:00,30.2,5.0,30.16,NNW,344,0.0,-999.0,34,-99.99,,,0.00,weatherlink.com 1.10,2013-02-18 22:05:00,
2013-02-18 17:20:00,29.8,5.0,30.16,NW,322,0.0,-999.0,35,-99.99,,,0.00,weatherlink.com 1.10,2013-02-18 22:20:00,
2013-02-18 17:35:00,29.2,5.0,30.17,NW,322,0.0,-999.0,35,-99.99,,,0.00,weatherlink.com 1.10,2013-02-18 22:35:00,
2013-02-18 17:50:00,28.6,5.0,30.18,NW,322,0.0,-999.0,36,-99.99,,,0.00,weatherlink.com 1.10,2013-02-18 22:50:00,
2013-02-18 18:05:00,28.0,5.0,30.18,NW,322,0.0,-999.0,38,-99.99,,,0.00,weatherlink.com 1.10,2013-02-18 23:05:00,
2013-02-18 18:20:00,27.6,5.0,30.19,NW,322,0.0,-999.0,38,-99.99,,,0.00,weatherlink.com 1.10,2013-02-18 23:20:00,
2013-02-18 18:35:00,27.2,5.0,30.19,NW,322,0.0,-999.0,38,-99.99,,,0.00,weatherlink.com 1.10,2013-02-18 23:35:00,
2013-02-18 18:50:00,26.7,6.0,30.20,NW,322,0.0,-999.0,41,-99.99,,,0.00,weatherlink.com 1.10,2013-02-18 23:50:00,
2013-02-18 19:05:00,26.0,7.0,30.21,NW,322,0.0,-999.0,44,-99.99,,,0.00,weatherlink.com 1.10,2013-02-19 00:05:00,
2013-02-18 19:20:00,25.8,7.0,30.20,West,276,0.0,-999.0,45,-99.99,,,0.00,weatherlink.com 1.10,2013-02-19 00:20:00,
2013-02-18 19:35:00,25.9,8.0,30.20,West,264,0.0,-999.0,46,-99.99,,,0.00,weatherlink.com 1.10,2013-02-19 00:35:00,
2013-02-18 19:50:00,25.7,7.0,30.20,West,266,0.0,-999.0,46,-99.99,,,0.00,weatherlink.com 1.10,2013-02-19 00:50:00,
2013-02-18 20:05:00,25.4,7.0,30.20,West,262,0.0,-999.0,46,-99.99,,,0.00,weatherlink.com 1.10,2013-02-19 01:05:00,
2013-02-18 20:20:00,25.6,7.0,30.20,West,262,0.0,-999.0,45,-99.99,,,0.00,weatherlink.com 1.10,2013-02-19 01:20:00,
2013-02-18 20:35:00,25.7,7.0,30.20,West,262,0.0,-999.0,45,-99.99,,,0.00,weatherlink.com 1.10,2013-02-19 01:35:00,
2013-02-18 20:50:00,25.9,7.0,30.20,West,260,0.0,-999.0,44,-99.99,,,0.00,weatherlink.com 1.10,2013-02-19 01:50:00,
2013-02-18 21:05:00,25.8,7.0,30.21,WSW,258,0.0,-999.0,44,-99.99,,,0.00,weatherlink.com 1.10,2013-02-19 02:05:00,
2013-02-18 21:20:00,26.1,6.0,30.22,WSW,258,0.0,-999.0,43,-99.99,,,0.00,weatherlink.com 1.10,2013-02-19 02:20:00,
2013-02-18 21:35:00,26.2,6.0,30.22,WSW,255,0.0,-999.0,43,-99.99,,,0.00,weatherlink.com 1.10,2013-02-19 02:35:00,
2013-02-18 21:50:00,26.0,6.0,30.21,WSW,255,0.0,-999.0,43,-99.99,,,0.00,weatherlink.com 1.10,2013-02-19 02:50:00,
2013-02-18 22:05:00,25.6,6.0,30.21,WSW,255,0.0,-999.0,44,-99.99,,,0.00,weatherlink.com 1.10,2013-02-19 03:05:00,
2013-02-18 22:20:00,25.2,7.0,30.21,WSW,255,0.0,-999.0,45,-99.99,,,0.00,weatherlink.com 1.10,2013-02-19 03:20:00,
2013-02-18 22:35:00,24.8,7.0,30.21,WSW,255,0.0,-999.0,46,-99.99,,,0.00,weatherlink.com 1.10,2013-02-19 03:35:00,
2013-02-18 22:50:00,24.6,7.0,30.20,WSW,255,0.0,-999.0,47,-99.99,,,0.00,weatherlink.com 1.10,2013-02-19 03:50:00,
2013-02-18 23:05:00,24.3,8.0,30.20,WSW,255,0.0,-999.0,50,-99.99,,,0.00,weatherlink.com 1.10,2013-02-19 04:05:00,
2013-02-18 23:20:00,24.5,8.0,30.20,West,260,0.0,-999.0,49,-99.99,,,0.00,weatherlink.com 1.10,2013-02-19 04:20:00,
2013-02-18 23:35:00,24.8,8.0,30.22,West,259,0.0,-999.0,49,-99.99,,,0.00,weatherlink.com 1.10,2013-02-19 04:35:00,
2013-02-18 23:50:00,25.5,7.0,30.21,WSW,245,0.0,-999.0,46,-99.99,,,0.00,weatherlink.com 1.10,2013-02-19 04:50:00,